Vertical_Velocity
5 7 1 1 -1 -1 -1 1 0 0 -2 1 0 2 0 -1 -1 1 -1 -0 -0 1 -1 -1 -2 1 0 -1 -0 0 -0 0 0 -0 -1 0 -0 -1
5 5 -1 3 1 -1 -0 1 3 -1 -1 0 -4 2 -0 0 -1 1 -1 -2 2 3 -1 -1 -2 -0 2 -0 -1 1 1 -0 1 -1 -1 -2 -0 -2
4 0 -1 4 1 -0 1 2 1 1 -2 -2 -1 1 0 0 -2 -2 -5 -2 -1 -0 3 2 -1 -1 0 2 -1 0 -1 1 0 0 -1 -0 -2 0
5 3 1 3 2 -0 1 2 1 1 -4 4 -6 -0 1 0 -0 -0 -1 -3 -1 -2 0 -2 2 1 2 2 2 2 2 -0 1 0 2 -0 3 0
2 6 5 4 -0 -1 3 -2 0 2 -3 -2 3 -1 2 3 -1 -1 2 -1 -3 1 -3 1 1 3 -3 2 2 4 2 1 -1 1 4 3 1 3
0 2 2 2 2 3 2 -1 -1 -2 -1 -4 -1 -3 -2 -0 -0 0 3 4 4 -5 -1 -1 -3 -3 -1 -1 2 2 -0 3 1 -1 -0 1 3 -1
0 1 -1 4 1 2 -1 2 1 -1 0 -2 -2 -1 -0 -3 0 3 -1 1 4 -4 2 -0 -2 1 5 1 2 1 2 1 1 2 -3 1 -0 -3
2 5 5 4 1 2 2 3 7 0 1 -2 -0 -3 2 1 3 1 -2 -1 -0 1 -1 6 -4 1 -1 -1 1 5 2 1 2 1 0 2 2 3
0 4 -1 4 1 -5 -8 -7 -5 2 4 5 0 6 4 11 6 0 3 2 2 6 1 -2 -3 3 -3 -1 1 5 3 2 4 -0 -3 2 4 -0
6 -11 1 7 5 8 9 9 5 4 4 3 3 3 1 -5 5 3 4 2 -2 -1 -1 -3 9 1 -1 -4 0 2 2 3 3 5 4 4 6 3
-5 -2 -8 -0 -3 -1 1 -4 -0 -4 -3 1 3 5 3 -3 -1 3 -3 2 -2 9 5 -5 5 5 3 0 -4 -6 -1 -5 -3 5 4 0 3 5
2 4 0 -1 3 -3 1 -6 -1 8 -3 5 1 -0 6 -0 0 -1 1 0 1 4 11 2 6 11 -1 7 5 2 1 1 -3 -1 2 0 4 2
6 12 4 2 1 1 -0 3 -1 -0 2 -1 0 -0 1 1 2 0 -1 0 3 0 7 5 6 4 3 2 4 8 5 8 2 4 -0 -1 1 1
3 1 -0 -6 -2 3 3 -2 1 -2 1 -1 -2 -2 2 -2 -5 2 3 2 -3 2 -0 -3 4 2 2 1 4 4 1 3 3 3 3 3 -4 -2
3 1 6 -3 -4 -4 -3 2 4 -5 2 4 2 -0 2 -0 1 1 5 3 2 3 0 1 4 -5 -2 1 -1 -5 -7 -2 -4 -3 -2 -3 3 2
-5 -5 -1 8 2 3 2 6 -1 -4 -0 2 2 0 -4 -4 -2 -5 -7 -5 2 -1 1 3 1 -1 1 -0 0 2 -0 -3 -1 -4 2 1 1 -2
-0 -2 1 -0 -3 -6 -2 -1 -11 -5 4 4 -5 4 -2 0 -5 1 -2 -7 -2 -1 -1 3 6 2 5 1 -1 1 1 3 4 1 3 2 0 3
1 -3 -4 -1 3 3 -1 -3 -2 -5 2 6 -3 3 -1 -2 -1 -1 3 1 4 -1 -2 -1 -1 -3 -4 -3 0 2 2 2 2 -2 2 -0 1 -1
4 4 -1 -2 -4 -3 2 -3 2 -2 4 -3 2 -2 -2 3 1 -2 2 0 2 1 -2 -2 -2 -1 -3 2 4 1 0 -1 -2 -1 2 -1 0 0
1 3 3 1 0 -1 2 2 2 1 1 -1 -0 0 2 -2 -3 -3 2 -0 -0 1 0 -1 1 1 1 0 -4 2 -2 -1 -1 1 -0 -3 0 -2
-3 -3 -1 1 1 -2 -2 -3 -1 -2 -1 -0 1 -0 -1 -1 -1 -1 -0 -0 -2 0 0 1 3 -1 -3 -4 -2 7 -1 -2 -1 0 2 -1 1 3
2 -1 1 2 1 0 0 -0 -2 -0 -1 -2 -2 -2 -2 -0 1 -0 -0 -1 -2 -3 -4 -3 0 -2 -1 -3 1 2 3 1 1 0 1 2 3 -2
-0 -1 -1 -1 -1 0 1 0 1 1 1 -1 0 1 -1 0 2 2 0 -2 -0 -3 -2 -0 -2 -1 1 -0 -1 2 2 3 1 -0 6 1 0 -4
Height
3125 3130 3135 3139 3143 3146 3149 3153 3155 3156 3159 3162 3163 3163 3164 3165 3165 3167 3167 3167 3168 3168 3168 3168 3167 3168 3168 3168 3169 3168 3168 3167 3166 3166 3166 3164 3164 3163
3118 3123 3128 3133 3137 3141 3145 3148 3150 3151 3154 3157 3158 3159 3160 3160 3160 3161 3162 3162 3162 3163 3163 3163 3162 3163 3163 3163 3163 3162 3162 3162 3161 3161 3160 3160 3159 3158
3113 3118 3122 3127 3130 3134 3138 3141 3144 3145 3148 3151 3152 3153 3154 3155 3155 3155 3156 3156 3156 3156 3157 3158 3156 3156 3155 3156 3157 3157 3156 3156 3156 3155 3154 3154 3153 3153
3108 3112 3117 3120 3124 3128 3130 3134 3137 3139 3141 3145 3146 3147 3148 3148 3148 3150 3150 3150 3150 3150 3151 3151 3150 3149 3150 3150 3149 3150 3149 3149 3149 3148 3148 3148 3148 3148
3101 3106 3111 3114 3117 3121 3124 3127 3130 3132 3134 3137 3138 3139 3141 3142 3142 3143 3144 3144 3144 3143 3144 3144 3144 3143 3144 3143 3142 3141 3142 3142 3142 3142 3142 3141 3142 3141
3094 3099 3102 3106 3110 3114 3115 3119 3122 3124 3126 3127 3129 3131 3133 3135 3135 3136 3136 3135 3135 3135 3135 3136 3136 3136 3136 3136 3136 3136 3136 3135 3135 3134 3135 3135 3135 3135
3087 3091 3095 3099 3102 3104 3106 3111 3113 3114 3116 3117 3119 3121 3124 3126 3128 3128 3127 3127 3126 3126 3126 3128 3127 3127 3127 3127 3127 3126 3127 3126 3127 3127 3126 3127 3127 3128
3079 3084 3087 3090 3093 3095 3096 3100 3102 3103 3105 3107 3109 3111 3115 3117 3118 3117 3116 3115 3114 3118 3115 3117 3115 3117 3117 3117 3118 3117 3117 3117 3117 3118 3119 3119 3119 3120
3069 3073 3076 3080 3081 3084 3087 3089 3092 3093 3094 3097 3098 3101 3103 3107 3108 3105 3105 3104 3104 3106 3104 3104 3104 3105 3106 3107 3107 3108 3107 3108 3109 3110 3110 3111 3111 3112
3060 3063 3065 3068 3070 3073 3075 3076 3079 3081 3083 3084 3086 3088 3090 3091 3092 3092 3092 3091 3091 3092 3092 3091 3092 3091 3091 3093 3095 3097 3098 3097 3100 3101 3102 3103 3104 3104
3054 3058 3060 3062 3065 3067 3068 3070 3071 3071 3072 3073 3074 3075 3076 3077 3079 3079 3079 3080 3079 3080 3080 3079 3080 3079 3080 3080 3082 3083 3085 3085 3088 3092 3091 3092 3093 3094
3050 3052 3054 3058 3060 3060 3060 3061 3062 3064 3065 3065 3065 3064 3065 3066 3067 3067 3067 3067 3068 3067 3070 3068 3070 3069 3069 3072 3071 3070 3071 3073 3074 3076 3078 3079 3082 3082
3045 3046 3048 3049 3051 3052 3053 3053 3054 3054 3055 3056 3056 3056 3056 3057 3057 3057 3058 3058 3057 3056 3057 3056 3057 3057 3057 3058 3060 3060 3061 3062 3062 3064 3065 3068 3071 3071
3037 3038 3040 3042 3043 3044 3045 3047 3045 3046 3046 3047 3048 3049 3049 3049 3049 3050 3049 3049 3050 3050 3048 3048 3047 3047 3048 3050 3050 3052 3053 3053 3054 3054 3055 3057 3057 3059
3030 3032 3033 3034 3035 3037 3037 3037 3037 3039 3039 3039 3039 3039 3039 3039 3040 3040 3042 3041 3041 3041 3040 3040 3041 3040 3042 3042 3044 3043 3043 3044 3044 3045 3047 3049 3050 3050
3022 3024 3026 3026 3027 3027 3028 3029 3028 3030 3031 3031 3031 3031 3032 3031 3033 3034 3034 3035 3034 3036 3034 3036 3034 3035 3034 3034 3034 3034 3035 3035 3036 3037 3037 3036 3037 3037
3015 3015 3016 3016 3019 3020 3021 3021 3022 3023 3023 3023 3023 3024 3024 3025 3026 3026 3027 3027 3029 3029 3029 3029 3027 3027 3026 3026 3026 3027 3026 3026 3026 3024 3025 3025 3025 3026
3007 3007 3009 3009 3010 3010 3012 3012 3014 3016 3017 3016 3015 3016 3017 3018 3018 3019 3020 3020 3020 3020 3021 3021 3020 3019 3018 3017 3019 3018 3018 3018 3017 3016 3016 3016 3017 3019
3002 3001 3001 3001 3001 3003 3005 3005 3007 3008 3010 3009 3009 3008 3009 3010 3011 3012 3012 3012 3013 3012 3012 3012 3012 3010 3008 3008 3010 3010 3010 3009 3008 3008 3007 3006 3007 3008
2995 2996 2995 2995 2995 2996 2997 2998 3000 3002 3002 3002 3002 3002 3002 3002 3003 3004 3004 3004 3004 3003 3003 3003 3003 3002 3000 3000 3000 3002 3000 3000 2999 2999 2998 2997 2998 2997
2988 2989 2990 2990 2990 2991 2992 2993 2994 2995 2995 2995 2995 2994 2995 2996 2996 2996 2996 2996 2996 2996 2995 2995 2995 2993 2992 2991 2992 2993 2992 2991 2991 2990 2989 2988 2987 2987
2982 2983 2984 2984 2985 2986 2987 2987 2988 2989 2989 2989 2988 2988 2989 2989 2989 2988 2988 2988 2987 2987 2987 2987 2987 2985 2985 2984 2984 2984 2983 2982 2981 2979 2979 2979 2978 2976
2978 2979 2980 2980 2981 2982 2982 2983 2983 2983 2982 2982 2983 2982 2982 2982 2981 2980 2980 2979 2979 2979 2979 2979 2978 2977 2976 2976 2975 2974 2974 2973 2971 2970 2970 2969 2968 2967